Location: Curupao
(10.4996°N, 66.6442°W)
Time: 10:23:02
(UTC+00:00)

Meteor 2-21 Rocket - Pass Details

Date: 23 May 2024
Orbit: 934 x 968 km, 82.5° (Epoch: 21 June)

Event Time Altitude Azimuth Distance (km) Brightness Sun altitude
Exits shadow 00:11:24 - 181° (S) 3,317 7.0 -20.7°
Reaches altitude 10° 00:13:02 10° 181° (S) 2,703 6.6 -21.1°
Maximum altitude 00:19:14 83° 93° (E) 976 4.3 -22.4°
Drops below altitude 10° 00:25:26 10° 6° (N) 2,697 7.1 -23.8°
Sets 00:27:55 0° 6° (N) 3,640 7.8 -24.3°
